• In Belarus
  • List of Countries
  • For 7 days
  • Water Temperature
  • Satellite Maps
  • Weather Map
  • Weather Widgets
  • user-avatar
    Login

    Hourly Weather Armawir

    Today, 21 January, Monday

    Time Temperature Precipitation Wind Pressure Humidity
    00:00 -3°C° 0 mm 2 mps 692 mmHg 37%
    01:00 -3°C° 0 mm 2 mps 692 mmHg 38%
    02:00 -3°C° 0 mm 2 mps 692 mmHg 38%
    03:00 -4°C° 0 mm 2 mps 692 mmHg 38%
    04:00 -4°C° 0 mm 2 mps 692 mmHg 38%
    05:00 -4°C° 0 mm 2 mps 692 mmHg 38%
    06:00 -4°C° 0 mm 2 mps 692 mmHg 39%
    07:00 -3°C° 0 mm 2 mps 692 mmHg 37%
    08:00 -3°C° 0 mm 2 mps 692 mmHg 36%
    09:00 -2°C° 0 mm 2 mps 692 mmHg 35%
    10:00 -1°C° 0 mm 2 mps 692 mmHg 33%
    11:00 +2°C° 0 mm 2 mps 691 mmHg 31%
    12:00 +3°C° 0 mm 2 mps 691 mmHg 29%
    13:00 +3°C° 0 mm 2 mps 690 mmHg 29%
    14:00 +3°C° 0 mm 2 mps 690 mmHg 30%
    15:00 +4°C° 0 mm 2 mps 689 mmHg 30%
    16:00 +3°C° 0 mm 2 mps 690 mmHg 32%
    17:00 +1°C° 0 mm 2 mps 690 mmHg 34%
    18:00 -1°C° 0 mm 2 mps 690 mmHg 36%
    19:00 -1°C° 0 mm 2 mps 690 mmHg 37%
    20:00 -2°C° 0 mm 2 mps 690 mmHg 38%
    21:00 -2°C° 0 mm 2 mps 690 mmHg 39%
    22:00 -2°C° 0 mm 2 mps 690 mmHg 40%
    23:00 -3°C° 0 mm 2 mps 690 mmHg 40%

    Tomorrow, 22 January, Tuesday

    Time Temperature Precipitation Wind Pressure Humidity
    00:00 -3°C° 0 mm 2 mps 690 mmHg 41%
    01:00 -3°C° 0 mm 2 mps 690 mmHg 41%
    02:00 -3°C° 0 mm 2 mps 689 mmHg 41%
    03:00 -3°C° 0 mm 2 mps 689 mmHg 41%
    04:00 -3°C° 0 mm 2 mps 689 mmHg 41%
    05:00 -3°C° 0 mm 2 mps 689 mmHg 41%
    06:00 -3°C° 0 mm 2 mps 688 mmHg 41%
    07:00 -3°C° 0 mm 2 mps 689 mmHg 40%
    08:00 -2°C° 0 mm 2 mps 689 mmHg 38%
    09:00 -1°C° 0 mm 2 mps 689 mmHg 37%
    10:00 +2°C° 0 mm 1 mps 689 mmHg 36%
    11:00 +3°C° 0 mm 1 mps 688 mmHg 34%
    12:00 +5°C° 0 mm 1 mps 688 mmHg 32%
    13:00 +5°C° 0 mm 1 mps 688 mmHg 33%
    14:00 +5°C° 0 mm 1 mps 687 mmHg 33%
    15:00 +6°C° 0 mm 1 mps 687 mmHg 34%
    16:00 +4°C° 0 mm 1 mps 687 mmHg 37%
    17:00 +3°C° 0 mm 1 mps 688 mmHg 40%
    18:00 +2°C° 0 mm 1 mps 688 mmHg 43%
    19:00 +1°C° 0 mm 1 mps 688 mmHg 43%
    20:00 -1°C° 0 mm 2 mps 688 mmHg 44%
    21:00 -1°C° 0 mm 2 mps 689 mmHg 44%
    22:00 -2°C° 0 mm 2 mps 689 mmHg 44%
    23:00 -2°C° 0 mm 2 mps 689 mmHg 45%

    Day after tomorrow, 23 January, Wednesday

    Time Temperature Precipitation Wind Pressure Humidity
    00:00 -2°C° 0 mm 2 mps 689 mmHg 45%
    01:00 -3°C° 0 mm 2 mps 689 mmHg 46%
    02:00 -3°C° 0 mm 2 mps 689 mmHg 46%
    03:00 -3°C° 0 mm 2 mps 689 mmHg 46%
    04:00 -3°C° 0 mm 2 mps 689 mmHg 46%
    05:00 -3°C° 0 mm 2 mps 689 mmHg 46%
    06:00 -3°C° 0 mm 2 mps 689 mmHg 46%
    07:00 -1°C° 0 mm 1 mps 690 mmHg 44%
    08:00 0°C° 0 mm 1 mps 690 mmHg 43%
    09:00 +1°C° 0 mm 1 mps 690 mmHg 41%
    10:00 +2°C° 0 mm 1 mps 690 mmHg 40%
    11:00 +2°C° 0 mm 2 mps 690 mmHg 39%
    12:00 +3°C° 0 mm 2 mps 690 mmHg 37%
    13:00 +4°C° 0 mm 2 mps 689 mmHg 38%
    14:00 +4°C° 0 mm 2 mps 689 mmHg 38%
    15:00 +4°C° 0 mm 2 mps 689 mmHg 38%
    16:00 +3°C° 0 mm 2 mps 690 mmHg 41%
    17:00 +2°C° 0 mm 2 mps 690 mmHg 43%
    18:00 +1°C° 0 mm 2 mps 690 mmHg 46%
    19:00 -1°C° 0 mm 2 mps 691 mmHg 47%
    20:00 -1°C° 0 mm 2 mps 691 mmHg 48%
    21:00 -1°C° 0 mm 2 mps 692 mmHg 49%
    22:00 -1°C° 0 mm 2 mps 692 mmHg 50%
    23:00 -2°C° 0 mm 2 mps 692 mmHg 51%

    24 January, Thursday

    Time Temperature Precipitation Wind Pressure Humidity
    00:00 -2°C° 0 mm 2 mps 692 mmHg 52%
    01:00 -2°C° 0 mm 2 mps 692 mmHg 52%
    02:00 -2°C° 0 mm 2 mps 692 mmHg 53%
    03:00 -2°C° 0 mm 2 mps 692 mmHg 54%
    04:00 -3°C° 0 mm 2 mps 692 mmHg 54%
    05:00 -3°C° 0 mm 2 mps 692 mmHg 54%
    06:00 -3°C° 0 mm 2 mps 692 mmHg 54%
    07:00 -2°C° 0 mm 2 mps 692 mmHg 51%
    08:00 -1°C° 0 mm 2 mps 692 mmHg 49%
    09:00 +1°C° 0 mm 2 mps 692 mmHg 46%
    10:00 +2°C° 0 mm 2 mps 692 mmHg 45%
    11:00 +3°C° 0 mm 2 mps 691 mmHg 43%
    12:00 +5°C° 0 mm 2 mps 691 mmHg 42%
    13:00 +5°C° 0 mm 2 mps 691 mmHg 41%
    14:00 +4°C° 0 mm 3 mps 690 mmHg 41%
    15:00 +5°C° 0 mm 3 mps 690 mmHg 41%
    16:00 +4°C° 0 mm 3 mps 690 mmHg 43%
    17:00 +3°C° 0 mm 3 mps 690 mmHg 46%
    18:00 +2°C° 0 mm 2 mps 690 mmHg 49%
    19:00 +2°C° 0 mm 2 mps 690 mmHg 50%
    20:00 +2°C° 0 mm 2 mps 690 mmHg 51%
    21:00 +1°C° 0 mm 2 mps 690 mmHg 52%
    22:00 +1°C° 0 mm 2 mps 690 mmHg 52%
    23:00 +1°C° 0 mm 2 mps 690 mmHg 52%

    25 January, Friday

    Time Temperature Precipitation Wind Pressure Humidity
    00:00 +1°C° 0 mm 2 mps 689 mmHg 52%
    01:00 +1°C° 0 mm 2 mps 689 mmHg 53%
    02:00 +1°C° 0 mm 2 mps 689 mmHg 53%
    03:00 +2°C° 0 mm 1 mps 688 mmHg 54%
    04:00 +1°C° 0.1 mm 2 mps 688 mmHg 56%
    05:00 +1°C° 0.1 mm 2 mps 688 mmHg 58%
    06:00 0°C° 0.1 mm 3 mps 688 mmHg 61%
    07:00 +1°C° 0 mm 3 mps 688 mmHg 60%
    08:00 +2°C° 0 mm 2 mps 688 mmHg 59%
    09:00 +3°C° 0 mm 2 mps 688 mmHg 59%
    10:00 +3°C° 0.1 mm 3 mps 688 mmHg 57%
    11:00 +4°C° 0.1 mm 3 mps 687 mmHg 56%
    12:00 +5°C° 0.1 mm 3 mps 687 mmHg 55%
    13:00 +5°C° 0 mm 3 mps 686 mmHg 54%
    14:00 +6°C° 0 mm 4 mps 686 mmHg 53%
    15:00 +6°C° 0 mm 4 mps 686 mmHg 51%
    16:00 +5°C° 0 mm 3 mps 686 mmHg 54%
    17:00 +4°C° 0 mm 3 mps 686 mmHg 57%
    18:00 +4°C° 0 mm 2 mps 686 mmHg 60%
    19:00 +3°C° 0 mm 2 mps 687 mmHg 61%
    20:00 +3°C° 0 mm 2 mps 687 mmHg 61%
    21:00 +3°C° 0 mm 2 mps 687 mmHg 62%
    22:00 +2°C° 0 mm 2 mps 687 mmHg 62%
    23:00 +2°C° 0 mm 2 mps 687 mmHg 62%

    26 January, Saturday

    Time Temperature Precipitation Wind Pressure Humidity
    00:00 +2°C° 0 mm 2 mps 687 mmHg 62%
    01:00 +2°C° 0 mm 2 mps 686 mmHg 63%
    02:00 +1°C° 0 mm 2 mps 686 mmHg 63%
    03:00 +1°C° 0 mm 2 mps 686 mmHg 63%
    04:00 +1°C° 0 mm 2 mps 686 mmHg 63%
    05:00 +1°C° 0 mm 2 mps 686 mmHg 63%
    06:00 +1°C° 0 mm 2 mps 686 mmHg 63%
    07:00 +2°C° 0 mm 2 mps 686 mmHg 59%
    08:00 +3°C° 0 mm 2 mps 686 mmHg 56%
    09:00 +4°C° 0 mm 2 mps 686 mmHg 53%
    10:00 +5°C° 0 mm 2 mps 686 mmHg 50%
    11:00 +5°C° 0 mm 3 mps 685 mmHg 48%
    12:00 +8°C° 0 mm 3 mps 685 mmHg 45%
    13:00 +8°C° 0 mm 3 mps 684 mmHg 43%
    14:00 +8°C° 0 mm 3 mps 684 mmHg 42%
    15:00 +9°C° 0 mm 3 mps 683 mmHg 41%
    16:00 +8°C° 0 mm 3 mps 683 mmHg 43%
    17:00 +7°C° 0 mm 3 mps 683 mmHg 46%
    18:00 +4°C° 0 mm 3 mps 683 mmHg 49%
    19:00 +5°C° 0 mm 2 mps 683 mmHg 51%
    20:00 +5°C° 0 mm 2 mps 683 mmHg 53%
    21:00 +5°C° 0 mm 2 mps 683 mmHg 55%
    22:00 +5°C° 0 mm 2 mps 683 mmHg 57%
    23:00 +4°C° 0 mm 2 mps 683 mmHg 59%
    Show more